Flag for Cuba Weather past 2 weeks in Santiago de Cuba, Cuba

Now
86 °F

Scattered showers. Scattered clouds.


Feels Like: 92 °F
Forecast: 74 / 89 °F
Wind: 10 mph from South

Location: Santiago De Cuba - Oriente

Current Time: Sep 17, 2014 at 2:33:42 PM

Latest Report: Sep 17, 2014 at 1:55 PM


Visibility: N/A

Pressure: 29.92 "Hg

Humidity: 62%

Dew point: 72 °F

Location of Santiago de CubaLocation

Historic Weather in Santiago de Cuba — Graph

°F

Santiago de Cuba temperature yesterday

Maximum temperature yesterday: 88 °F (at 10:53 AM)
Minimum temperature yesterday: 75 °F (at 11:53 PM)
Average temperature yesterday: 82 °F

Past Weeks' High & Low Weather Summary

 TemperatureHumidityPressure
High91 °F (Sep 4, 11:52 AM)94% (Sep 6, 5:53 PM)30.07 "Hg (Sep 6, 5:53 PM)
Low72 °F (Sep 6, 2:52 PM)43% (Sep 14, 10:52 AM)29.89 "Hg (Sep 7, 4:51 PM)
Average81 °F72%29.98 "Hg
* Reported Sep 2 12:51 PM — Sep 17 12:51 PM, Santiago de Cuba, Weather by CustomWeather, © 2014

Note: Actual official high and low records may vary slightly from our data, if they occured in-between our weather recording intervals... More about our weather records

Advertising

Santiago de Cuba weather history for previous 24 hours

 ConditionsComfort  
Time TempWeatherWind HumidityBarometerVisibility
12:51 PM
Sep 17
86 °FScattered clouds.8 mph62%29.95 "Hg6 mi
11:53 AM86 °FScattered clouds.8 mph62%29.98 "HgN/A
10:51 AM86 °FScattered clouds.6 mph62%29.98 "Hg6 mi
9:50 AM84 °FPassing clouds.3 mph66%29.98 "Hg6 mi
8:53 AM82 °FPassing clouds.3 mph74%29.98 "Hg6 mi
7:52 AM75 °FPassing clouds.5 mph89%29.95 "Hg6 mi
6:53 AM73 °FPassing clouds.6 mph89%29.95 "Hg6 mi
5:50 AM73 °FPassing clouds.6 mph89%29.92 "Hg6 mi
4:58 AM75 °FPassing clouds.5 mph83%29.92 "Hg6 mi
3:50 AM73 °FPassing clouds.3 mph89%29.92 "Hg6 mi
2:53 AM75 °FPassing clouds.5 mph83%29.95 "Hg6 mi
1:53 AM75 °FPassing clouds.6 mph83%29.98 "Hg6 mi
12:51 AM75 °FPassing clouds.6 mph83%29.98 "Hg6 mi
11:53 PM
Sep 16
75 °FPassing clouds.6 mph89%30.01 "Hg6 mi
10:53 PM77 °FPassing clouds.6 mph83%30.01 "Hg6 mi
9:51 PM77 °FPassing clouds.5 mph83%30.01 "Hg6 mi
8:52 PM79 °FScattered showers. Passing clouds.5 mph84%29.98 "Hg5 mi
7:50 PM82 °FScattered showers. Scattered clouds.7 mph74%29.95 "Hg6 mi
6:51 PM84 °FScattered showers. Scattered clouds.9 mph74%29.92 "Hg6 mi
5:50 PM84 °FScattered showers. Scattered clouds.5 mph70%29.92 "Hg5 mi
3:53 PM88 °FScattered clouds.14 mph62%29.92 "Hg6 mi
2:53 PM88 °FScattered clouds.14 mph66%29.95 "Hg6 mi
Weather by CustomWeather, © 2014

See weather overviewHow to use our weather pages